This demonstration page uses our WeatherBlox Daily Observations layout. Learn more.

Left ArrowRight Arrow

38.88101, -77.10428

Hourly Observations for April 26, 2021

Temp ( °F °C ) Dew Point ( °F °C ) Humidity (%) Winds ( mph kmh ) Pressure ( in mb ) Visibility ( mi km ) Precip ( " mm )
12:52 am 00:52 Mostly Cloudy 55 12.8 39 3.9 55 55 NNW 10 17 29.98 1015 10 16 0.00 0.00
1:52 am 01:52 Mostly Cloudy 54 12.2 31 -0.6 42 42 NW 14 22 30.00 1016 10 16 0.00 0.00
2:52 am 02:52 Partly Cloudy 51 10.6 32 0 48 48 NNW 15 24 30.03 1017 10 16 0.00 0.00
3:52 am 03:52 Mostly Clear 49 9.4 31 -0.6 50 50 NW 14 22 30.05 1018 10 16 0.00 0.00
4:52 am 04:52 Mostly Clear 47 8.3 30 -1.1 52 52 NW 10 17 30.07 1018 10 16 0.00 0.00
5:52 am 05:52 Mostly Clear 46 7.8 29 -1.7 51 51 WNW 12 19 30.09 1019 10 16 0.00 0.00
6:52 am 06:52 Mostly Sunny 46 7.8 29 -1.7 51 51 NW 12 19 30.11 1020 10 16 0.00 0.00
7:52 am 07:52 Sunny 48 8.9 28 -2.2 46 46 NW 16 26 30.14 1021 10 16 0.00 0.00
8:52 am 08:52 Sunny 51 10.6 25 -3.9 36 36 NW 14 22 30.15 1021 10 16 0.00 0.00
9:52 am 09:52 Mostly Sunny 54 12.2 24 -4.4 31 31 NNW 17 28 30.14 1021 10 16 0.00 0.00
10:52 am 10:52 Mostly Sunny 56 13.3 20 -6.7 24 24 NW 16 26 30.16 1021 10 16 0.00 0.00
11:52 am 11:52 Sunny 60 15.6 23 -5 24 24 NW 14 22 30.16 1021 10 16 0.00 0.00
12:52 pm 12:52 Sunny 60 15.6 21 -6.1 22 22 NW 9 15 30.14 1021 10 16 0.00 0.00
1:52 pm 13:52 Sunny 63 17.2 25 -3.9 24 24 NNW 12 19 30.14 1021 10 16 0.00 0.00
2:52 pm 14:52 Mostly Sunny 65 18.3 26 -3.3 23 23 NNW 16 26 30.12 1020 10 16 0.00 0.00
3:52 pm 15:52 Mostly Sunny 67 19.4 28 -2.2 23 23 NNW 15 24 30.11 1020 10 16 0.00 0.00
4:52 pm 16:52 Mostly Sunny 68 20 28 -2.2 22 22 WNW 9 15 30.09 1019 10 16 0.00 0.00
5:52 pm 17:52 Mostly Sunny 68 20 30 -1.1 24 24 NNW 10 17 30.09 1019 10 16 0.00 0.00
6:52 pm 18:52 Mostly Sunny 66 18.9 32 0 28 28 N 7 11 30.08 1019 10 16 0.00 0.00
7:52 pm 19:52 Mostly Sunny 64 17.8 38 3.3 38 38 NE 3 6 30.08 1019 10 16 0.00 0.00
8:52 pm 20:52 Mostly Clear 59 15 40 4.4 49 49 S 9 15 30.11 1020 10 16 0.00 0.00
9:52 pm 21:52 Partly Cloudy 58 14.4 41 5 53 53 SSW 6 9 30.12 1020 10 16 0.00 0.00
10:52 pm 22:52 Partly Cloudy 58 14.4 43 6.1 58 58 S 3 6 30.11 1020 10 16 0.00 0.00
11:52 pm 23:52 Partly Cloudy 56 13.3 38 3.3 51 51 Calm 30.11 1020 10 16 0.00 0.00

Powered by AerisWeather